Frenchman Lake Weather Center

Moon Phase Calendar



Frenchman Lake Water Level
Online Cameras

 


      

Current Conditions in Portola
7/24/2021 1:28:32 AM

69°F
Feels Like 67
Clear
Humidity
32%
Pressure
30.06"
Wind
4.9 mph (SW)
Dew Point
38°F
UV Index
0/10 (Low)
Visibility
6 mi

Hourly Forecast

Date & Time Sat, Jul 24
1:00 AM
Sat, Jul 24
2:00 AM
Sat, Jul 24
3:00 AM
Sat, Jul 24
4:00 AM
Sat, Jul 24
5:00 AM
Sat, Jul 24
6:00 AM
Sat, Jul 24
7:00 AM
Sat, Jul 24
8:00 AM
Sat, Jul 24
9:00 AM
Sat, Jul 24
10:00 AM
Sat, Jul 24
11:00 AM
Sat, Jul 24
12:00 PM
Sat, Jul 24
1:00 PM
Sat, Jul 24
2:00 PM
Sat, Jul 24
3:00 PM
Sat, Jul 24
4:00 PM
Sat, Jul 24
5:00 PM
Sat, Jul 24
6:00 PM
Sat, Jul 24
7:00 PM
Sat, Jul 24
8:00 PM
Sat, Jul 24
9:00 PM
Sat, Jul 24
10:00 PM
Sat, Jul 24
11:00 PM
Sun, Jul 25
12:00 AM
Sun, Jul 25
1:00 AM
Sun, Jul 25
2:00 AM
Sun, Jul 25
3:00 AM
Sun, Jul 25
4:00 AM
Sun, Jul 25
5:00 AM
Sun, Jul 25
6:00 AM
Sun, Jul 25
7:00 AM
Sun, Jul 25
8:00 AM
Sun, Jul 25
9:00 AM
Sun, Jul 25
10:00 AM
Sun, Jul 25
11:00 AM
Sun, Jul 25
12:00 PM
Sun, Jul 25
1:00 PM
Sun, Jul 25
2:00 PM
Sun, Jul 25
3:00 PM
Sun, Jul 25
4:00 PM
Sun, Jul 25
5:00 PM
Sun, Jul 25
6:00 PM
Sun, Jul 25
7:00 PM
Sun, Jul 25
8:00 PM
Sun, Jul 25
9:00 PM
Sun, Jul 25
10:00 PM
Sun, Jul 25
11:00 PM
Mon, Jul 26
12:00 AM
Condition
Clear

Clear

Clear

Clear

Clear

Clear

Clear

Clear

Clear

Clear

Clear

Clear

Clear

Clear

Clear

Clear

Clear

Clouds

Clouds

Clouds

Clouds

Clouds

Clouds

Clear

Clear

Clear

Clouds

Clouds

Clouds

Clouds

Clouds

Clouds

Clouds

Clouds

Clouds

Clouds

Clouds

Clouds

Clouds

Clouds

Clouds

Clouds

Clouds

Clouds

Clouds

Clouds

Clouds

Clouds
Temperature 69°F67°F65°F63°F60°F57°F64°F70°F76°F80°F84°F87°F90°F91°F93°F93°F92°F90°F86°F77°F70°F68°F66°F64°F62°F62°F61°F60°F60°F59°F66°F72°F77°F82°F86°F90°F92°F93°F94°F93°F91°F89°F85°F78°F72°F69°F68°F68°F
Feels Like 67°F65°F63°F60°F58°F55°F62°F68°F74°F79°F81°F84°F86°F87°F88°F89°F88°F86°F83°F76°F68°F65°F63°F61°F59°F59°F59°F58°F57°F56°F63°F69°F75°F80°F83°F86°F87°F88°F89°F88°F87°F85°F82°F77°F70°F67°F66°F66°F
Cloudiness 0%0%0%1%2%5%4%3%2%1%1%0%0%0%0%2%6%80%75%54%41%34%28%0%2%4%22%23%29%66%77%84%83%83%74%16%16%17%19%30%41%94%82%85%87%89%90%100%
Visibility 6 mi6 mi6 mi6 mi6 mi6 mi6 mi6 mi6 mi6 mi6 mi6 mi6 mi6 mi6 mi6 mi6 mi6 mi6 mi6 mi6 mi6 mi6 mi6 mi6 mi6 mi6 mi6 mi6 mi6 mi6 mi6 mi6 mi6 mi6 mi6 mi6 mi6 mi6 mi6 mi6 mi6 mi6 mi6 mi6 mi6 mi6 mi6 mi
Precipitation 0%0%0%0%0%0%0%0%0%0%0%0%0%0%0%0%0%0%0%0%0%0%0%0%0%0%0%0%0%0%0%0%0%0%0%0%0%0%0%0%0%0%0%0%0%0%0%0%
Humidity 32%33%33%35%37%38%32%22%17%14%13%12%12%12%11%11%12%13%15%20%24%25%26%27%29%29%29%30%31%32%29%22%19%17%15%13%13%13%13%13%15%16%18%23%27%29%31%30%
Dew Point 38°F37°F35°F35°F34°F32°F34°F30°F28°F28°F28°F29°F30°F31°F32°F32°F32°F32°F33°F33°F32°F31°F30°F30°F29°F29°F29°F29°F29°F29°F33°F31°F32°F33°F33°F34°F34°F35°F35°F36°F37°F37°F37°F37°F37°F36°F36°F35°F
Pressure 30.06"30.06"30.06"30.06"30.06"30.06"30.09"30.06"30.03"30"29.97"29.94"29.91"29.88"29.85"29.83"29.83"29.83"29.85"29.88"29.94"29.97"29.97"30"30"30"30"30"30"30"30"30"29.97"29.94"29.91"29.88"29.83"29.8"29.77"29.77"29.77"29.77"29.8"29.85"29.88"29.91"29.94"29.94"
Wind Speed 4.9 mph3.7 mph2.9 mph2 mph2.2 mph1.5 mph1.7 mph1.9 mph2.4 mph2.9 mph3.6 mph4.7 mph5.8 mph7.1 mph8.2 mph7.8 mph1.7 mph6.2 mph10.8 mph7.6 mph5.7 mph5.8 mph5.8 mph5.4 mph4 mph3.7 mph4.4 mph4.3 mph3.7 mph2.7 mph2 mph1.7 mph3.2 mph3 mph2.7 mph2.6 mph4 mph5.5 mph5.4 mph1.9 mph9 mph13.1 mph14.9 mph9.6 mph5.4 mph6.3 mph5.4 mph5.1 mph
Wind
Direction
228°
SW
237°
WSW
229°
SW
241°
WSW
275°
W
264°
W
263°
W
329°
NNW
20°
NNE
48°
NE
60°
ENE
70°
ENE
73°
ENE
71°
ENE
70°
ENE
69°
ENE
321°
NW
267°
W
255°
WSW
248°
WSW
237°
WSW
241°
WSW
237°
WSW
222°
SW
245°
WSW
256°
WSW
221°
SW
222°
SW
233°
SW
230°
SW
240°
WSW
293°
WNW
338°
NNW
354°
N

N
46°
NE
63°
ENE
69°
ENE
78°
ENE
320°
NW
282°
WNW
263°
W
250°
WSW
249°
WSW
249°
WSW
237°
WSW
221°
SW
224°
SW

Daily Forecast

Date High Low Precip. Humidity
Today
Jul 24

Clear
93 °F
57 °F
0%
12%
Sunday
Jul 25

Clouds
94 °F
59 °F
0%
13%
Monday
Jul 26

Clouds
91 °F
62 °F
0%
15%
Tuesday
Jul 27

Clouds
83 °F
64 °F
2%
22%
Wednesday
Jul 28

Rain
88 °F
58 °F
41%
19%
Thursday
Jul 29

Rain
89 °F
62 °F
59%
21%
Friday
Jul 30

Rain
87 °F
60 °F
69%
23%
Saturday
Jul 31

Clear
90 °F
60 °F
0%
11%
Sunday
Aug 1

Clear
92 °F
62 °F
0%
12%
Monday
Aug 2

Clear
94 °F
64 °F
0%
10%
Tuesday
Aug 3

Clear
92 °F
61 °F
0%
4%
Wednesday
Aug 4

Clear
85 °F
56 °F
0%
11%
Thursday
Aug 5

Clear
82 °F
54 °F
0%
13%
Friday
Aug 6

Clouds
85 °F
52 °F
0%
11%
Saturday
Aug 7

Clear
85 °F
53 °F
0%
13%
Sunday
Aug 8

Clear
88 °F
54 °F
0%
10%

Temperature 8-14 Day Outlook



Precipitation 8-14 Day Outlook




Quick Links
Frenchman Lake News
Frenchman Lake Photos
Frenchman Lake Videos




About Us
Contact Us
Site Map
Search Site
Advertise With Us
   
FrenchmanLake.LakesOnline.com
THE FRENCHMAN LAKE WEBSITE

Copyright 2021, Lakes Online
Privacy    |    Legal